Regional Weather Roundup
Issued by NWS

Home | Current Version | Previous Version | Graphics & Text | Print | Product List | Glossary On
Versions: 1 2 3 4 5 6 7 8 9 10 11 12 13 14 15 16 17 18 19 20 21 22 23 24 25 26 27 28 29 30 31 32 33 34 35 36 37 38 39 40 41 42 43 44 45 46 47 48 49 50
574
ASUS45 KPSR 140710
RWRAZ

ARIZONA HOURLY REGIONAL WEATHER ROUNDUP
NATIONAL WEATHER SERVICE PHOENIX AZ
1200 AM MST SUN FEB 14 2016

NOTE: FAIR INDICATES FEW OR NO CLOUDS BELOW 12,000 FEET WITH NO
SIGNIFICANT WEATHER AND/OR OBSTRUCTIONS TO VISIBILITY.

AZZ001>003-036-140800-
NORTHWEST ARIZONA

CITY           SKY/WX    TMP DP  RH WIND       PRES   REMARKS
BULLHEAD CITY  CLEAR     63  28  27 N9        30.05R
KINGMAN        CLEAR     43  21  41 E8        30.15R
$$

AZZ004>008-015-016-018-140800-
NORTH CENTRAL ARIZONA

CITY           SKY/WX    TMP DP  RH WIND       PRES   REMARKS
GRAND CANYON   PTCLDY    27  21  78 NE3       30.24S
WILLIAMS       PTCLDY    30  18  59 S10       30.27F WCI  21
PRESCOTT       CLEAR     42  20  41 S9        30.17F
FLAGSTAFF      PTCLDY    27  17  66 CALM      30.23F
PAYSON         CLEAR     46  21  36 NW3       30.17S
PAGE           CLEAR     43  32  65 SW3       30.19R
$$

AZZ009>014-017-140800-
NORTHEAST ARIZONA

CITY           SKY/WX    TMP DP  RH WIND       PRES   REMARKS
WINSLOW        PTCLDY    34  16  47 CALM      30.17S
SAINT JOHNS    MOCLDY    38  12  34 S5        30.17S WCI  34
WINDOW ROCK    MOCLDY    30   0  27 CALM      30.21S
SHOW LOW       PTCLDY    32  16  51 CALM      30.22S
$$

AZZ023-140800-
GREATER PHOENIX AREA

CITY           SKY/WX    TMP DP  RH WIND       PRES   REMARKS
PHOENIX        PTCLDY    65  33  30 SE6       29.97S
BUCKEYE        PTCLDY    64  23  20 NW7       30.01R
LUKE AFB       PTCLDY    61  30  30 SW1       29.97S
DEER VALLEY    CLEAR     60  28  29 VRB3      29.98S
SCOTTSDALE     CLEAR     58  34  40 CALM      30.00S
MESA-GATEWAY   CLEAR     54  32  43 SE6       30.00S
$$

AZZ027-028-140800-
SOUTHWEST MARICOPA COUNTY AND PINAL COUNTY

CITY           SKY/WX    TMP DP  RH WIND       PRES   REMARKS
CASA GRANDE    PTCLDY    55  28  35 SW3       30.01S
GILA BEND      FAIR      57  27  32 S7        29.99S
$$

AZZ503-504-507>509-140800-
SOUTHEAST ARIZONA

CITY           SKY/WX    TMP DP  RH WIND       PRES   REMARKS
TUCSON         PTCLDY    58  24  27 CALM      30.07S
DAVIS-MONTHAN  MOCLDY    54  25  33 S6        30.05F
NOGALES        MOCLDY    49  19  30 E6        30.11S
SIERRA VISTA   MOCLDY    56   9  15 SW10      30.15S
DOUGLAS        MOCLDY    48  18  30 N10       30.11S
SAFFORD        PTCLDY    49  20  31 SE6       30.05R
$$

AZZ020-021-025-026-031-140800-
SOUTHWEST ARIZONA

CITY           SKY/WX    TMP DP  RH WIND       PRES   REMARKS
YUMA           MOCLDY    59  35  40 CALM      29.98F
$$

CAZ031-033-041-043-047-048-061-140800-
SOUTHERN CALIFORNIA

CITY           SKY/WX    TMP DP  RH WIND       PRES   REMARKS
DOWNTOWN L.A.  PTCLDY    53  52  96 CALM      30.06S FOG
L.A. AIRPORT   FOG       54  51  90 CALM      30.06F VSB 3/4
SAN DIEGO      PTCLDY    59  53  80 N5        30.08R FOG
BURBANK        CLEAR     59  38  45 CALM      30.06F
ONTARIO        CLEAR     55  43  63 E3        30.06S
RIVERSIDE      CLEAR     60  38  43 CALM      30.07R
PALM SPRINGS   CLEAR     66  33  29 NW9       30.04S
EL CENTRO NAS  PTCLDY    59  24  26 W8        30.01S
IMPERIAL       PTCLDY    58  30  34 SW6       29.99R
BLYTHE         PTCLDY    60  22  23 W8        30.00S
NEEDLES        CLEAR     60  23  24 W7        30.04R
$$

NVZ020-UTZ003-140800-
SOUTHERN NEVADA-UTAH

CITY           SKY/WX    TMP DP  RH WIND       PRES   REMARKS
LAS VEGAS      CLEAR     58  24  27 SW3       30.10R
SALT LAKE CITY FOG       29  29 100 CALM      30.32S VSB 1/8
$$

NMZ009-TXZ055-140800-
NEW MEXICO-WEST TEXAS

CITY           SKY/WX    TMP DP  RH WIND       PRES   REMARKS
ALBUQUERQUE    CLOUDY    49  15  25 N9        30.11F
EL PASO        MOCLDY    56  13  18 CALM      30.03F
$$


........................KEY........................
SKY/WX - SKY CONDITION/WEATHER
TMP    - TEMPERATURE IN FAHRENHEIT
DP     - DEW POINT IN FAHRENHEIT
RH     - RELATIVE HUMIDITY IN PERCENT
WIND   - DIRECTION AND SPEED IN MILES PER HOUR (MPH)
VRB    - VARIABLE WIND DIRECTION
PRES   - MEAN SEA LEVEL PRESSURE IN INCHES OF MERCURY
         F - FALLING PRESSURE   R - RISING PRESSURE
         S - STEADY PRESSURE
VSB    - VISIBILITY IN MILES
HX     - HEAT INDEX IN FAHRENHEIT
WCI    - WIND CHILL INDEX IN FAHRENHEIT
TC     - TEMPERATURE IN CELSIUS WHICH IS ALSO KNOWN AS
         TEMPERATURE IN CENTIGRADE
AFB    - AIR FORCE BASE
         LUKE AFB IS LUKE AIR FORCE BASE
         DAVIS-MONTHAN IS DAVIS-MONTHAN AIR FORCE BASE
NAS    - NAVAL AIR STATION
         EL CENTRO NAS IS EL CENTRO NAVAL AIR STATION
N/A    - NOT AVAILABLE





USA.gov is the U.S. government's official web portal to all federal, state and local government web resources and services.